Weather in Monastir

Tunisia     35°44′43″N   10°45′21″E
temp.,
°C
wind,
m/s
gust,
m/s
humid.,
%
clouds,
%
prec.,
mm/h
press.,
hPa
HPBL,
m
16 april, fri
fri1601:00+15e91387100 0.4 1010740
04:00+15e101380100 0.1 1007970
07:00+15e101378100 0.2 10061224
10:00+15e101384100 1.1 10061005
13:00+15ene111386100 1.5 1005855
16:00+15ene101283100 0.1 1005802
19:00+15ene91184100 0.1 1007790
22:00+14ene81080100 0.3 1010910
17 april, sat
sat1701:00+14ene577623 0.4 1009621
04:00+14ne457796 0.1 1009626
07:00+14ene2275100 0.3 1010521
10:00+15s1171100 0.1 1011544
13:00+14w4580100 1.2 1011467
16:00+13wnw5675100 0.5 1011477
19:00+12nnw111480100 0.9 10131076
22:00+13nnw79775 0.6 1015726
18 april, sun
sun1801:00+12nw710760 0.6 1016744
04:00+12nw610675 0.0 1016680
07:00+11wnw59674 0.0 1017503
10:00+15nw57471 0.0 10181320
13:00+18w3636100 0.0 10171618
16:00+18nw794027 0.0 10161430
19:00+15nw912501 0.1 10181234
22:00+13wnw711590 0.0 1020961
19 april, mon
mon1901:00+12wnw712630 0.0 1020923
04:00+12wnw813640 0.0 1020839
07:00+12wnw712620 0.0 1021831
10:00+15nnw68510 0.0 10211395
13:00+17n35435 0.0 10201356
16:00+19nw133325 0.0 10181414
19:00+16ese67541 0.0 1019255
22:00+15se68603 0.0 1019340
20 april, tue
tue2001:00+15sse6106329 0.0 1018401
04:00+14s6126881 0.0 1017445
07:00+15s6116499 0.0 1016358
10:00+20ssw8103814 0.0 1015555
13:00+23sw683098 0.0 10141008
16:00+24ssw6825100 0.0 10111545
19:00+22s81233100 0.0 1011439
22:00+21sw61141100 0.0 1013502